HERBERT ISLAND (AUT) current weather conditions

sailwx.info

Wind from 140 at 13 knots

Air temperature 12.7° C
Dewpoint 11.0° C

Last reported at 2020-Jul-10 22:00 UTC.
Time now 2020-Jul-10 22:34 UTC

Location: N 50°56' W 127°38'.
View on Google Maps.

See reports from other nearby stations

  
Tides and Currents Weather Stations Pressure Air Temp Water Temp Dewpoint Dewpoint Depression Visibility Wind Speed Wind Dir Waves Ship Positions
date/time (UTC)wind fromknots sea level pressurealtimeterstation pressurevisibilityair tempwater tempwave heightnotes
2020-Jul-10 22:00 140 13 12.7
2020-Jul-10 21:00 140 17 13.0
2020-Jul-10 20:00 140 19 13.3
2020-Jul-10 19:00 120 14 13.0
2020-Jul-10 18:00 130 17 13.2
2020-Jul-10 17:00 140 13 13.0
2020-Jul-10 16:00 140 13 12.3
2020-Jul-10 15:00 120 14 11.5
2020-Jul-10 14:00 140 13 11.8
2020-Jul-10 13:00 140 15 11.8
2020-Jul-10 12:00 120 8 11.7
2020-Jul-10 11:00 130 8 11.8
2020-Jul-10 10:00 150 11 12.0
2020-Jul-10 09:00 160 8 12.0
2020-Jul-10 08:00 150 9 11.5
2020-Jul-10 07:00 140 6 12.9
2020-Jul-10 06:00 130 5 13.0
2020-Jul-10 05:00 130 5 12.7
2020-Jul-10 04:00 120 1 12.8
2020-Jul-10 03:00 100 5 12.7
2020-Jul-10 02:00 040 2 12.5
2020-Jul-10 01:00 12.8
2020-Jul-10 00:00 260 1 14.1
2020-Jul-09 23:00 070 0 14.0
2020-Jul-09 22:00 160 4 15.0
2020-Jul-09 21:00 150 6 15.0
2020-Jul-09 20:00 220 2 16.0
2020-Jul-09 19:00 080 1 14.0
2020-Jul-09 18:00 080 4 13.0
2020-Jul-09 17:00 070 2 12.0
2020-Jul-09 16:00 090 1 13.0
2020-Jul-09 15:00 150 5 11.0
2020-Jul-09 14:00 350 0 11.0
2020-Jul-09 13:00 300 1 11.0
2020-Jul-09 12:00 280 2 11.0
2020-Jul-09 11:00 340 1 11.0
2020-Jul-09 10:00 330 6 11.0
2020-Jul-09 09:00 300 6 11.0
2020-Jul-09 08:00 320 5 12.0
2020-Jul-09 07:00 270 8 12.0
2020-Jul-09 06:00 270 5 11.0
2020-Jul-09 05:00 300 7 11.0
2020-Jul-09 04:00 330 6 11.0
2020-Jul-09 03:00 180 0 13.0
2020-Jul-09 02:00 190 2 13.0
2020-Jul-09 01:00 100 7 13.0
2020-Jul-09 00:00 120 9 14.0
2020-Jul-08 23:00 140 14 13.0
2020-Jul-08 22:00 160 12 13.0